Stündliche Wetter Cegled

Heute, 21 Oktober, Mittwoch

Zeit Temperatur Niederschläge Wind Luftdruck Luftfeuchtigkeit
00:00 +8°C° 0 mm 3 m/S 759 mmHg 71%
01:00 +8°C° 0 mm 3 m/S 759 mmHg 74%
02:00 +8°C° 0 mm 3 m/S 758 mmHg 74%
03:00 +6°C° 0 mm 4 m/S 758 mmHg 74%
04:00 +6°C° 0 mm 4 m/S 757 mmHg 73%
05:00 +6°C° 0 mm 4 m/S 757 mmHg 74%
06:00 +6°C° 0 mm 4 m/S 758 mmHg 74%
07:00 +6°C° 0 mm 4 m/S 758 mmHg 73%
08:00 +8°C° 0 mm 5 m/S 758 mmHg 68%
09:00 +10°C° 0 mm 5 m/S 758 mmHg 62%
10:00 +13°C° 0 mm 5 m/S 757 mmHg 56%
11:00 +14°C° 0 mm 5 m/S 757 mmHg 53%
12:00 +15°C° 0 mm 5 m/S 757 mmHg 50%
13:00 +16°C° 0 mm 5 m/S 756 mmHg 47%
14:00 +17°C° 0 mm 4 m/S 756 mmHg 50%
15:00 +16°C° 0 mm 3 m/S 756 mmHg 53%
16:00 +16°C° 0 mm 3 m/S 755 mmHg 56%
17:00 +14°C° 0 mm 3 m/S 756 mmHg 58%
18:00 +13°C° 0 mm 3 m/S 756 mmHg 60%
19:00 +12°C° 0 mm 4 m/S 756 mmHg 61%
20:00 +12°C° 0 mm 3 m/S 756 mmHg 62%
21:00 +11°C° 0 mm 3 m/S 756 mmHg 62%
22:00 +11°C° 0 mm 3 m/S 756 mmHg 63%
23:00 +11°C° 0 mm 3 m/S 756 mmHg 64%

Morgen, 22 Oktober, Donnerstag

Zeit Temperatur Niederschläge Wind Luftdruck Luftfeuchtigkeit
00:00 +10°C° 0 mm 3 m/S 756 mmHg 66%
01:00 +10°C° 0 mm 3 m/S 756 mmHg 68%
02:00 +9°C° 0 mm 3 m/S 756 mmHg 70%
03:00 +9°C° 0 mm 3 m/S 756 mmHg 71%
04:00 +9°C° 0 mm 2 m/S 756 mmHg 73%
05:00 +9°C° 0 mm 2 m/S 756 mmHg 73%
06:00 +9°C° 0 mm 3 m/S 757 mmHg 73%
07:00 +9°C° 0 mm 3 m/S 757 mmHg 74%
08:00 +11°C° 0 mm 3 m/S 757 mmHg 70%
09:00 +13°C° 0 mm 3 m/S 757 mmHg 66%
10:00 +15°C° 0 mm 4 m/S 757 mmHg 61%
11:00 +15°C° 0 mm 4 m/S 757 mmHg 60%
12:00 +17°C° 0 mm 4 m/S 757 mmHg 58%
13:00 +18°C° 0 mm 4 m/S 757 mmHg 56%
14:00 +17°C° 0 mm 3 m/S 756 mmHg 60%
15:00 +17°C° 0 mm 3 m/S 756 mmHg 63%
16:00 +16°C° 0 mm 3 m/S 756 mmHg 67%
17:00 +15°C° 0 mm 2 m/S 756 mmHg 71%
18:00 +14°C° 0 mm 2 m/S 756 mmHg 76%
19:00 +13°C° 0 mm 1 m/S 756 mmHg 80%
20:00 +13°C° 0 mm 1 m/S 756 mmHg 80%
21:00 +13°C° 0 mm 1 m/S 756 mmHg 80%
22:00 +13°C° 0 mm 1 m/S 756 mmHg 80%
23:00 +12°C° 0 mm 2 m/S 756 mmHg 82%

übermorgen, 23 Oktober, Freitag

Zeit Temperatur Niederschläge Wind Luftdruck Luftfeuchtigkeit
00:00 +12°C° 0 mm 2 m/S 756 mmHg 83%
01:00 +12°C° 0 mm 2 m/S 755 mmHg 84%
02:00 +12°C° 0 mm 2 m/S 755 mmHg 83%
03:00 +10°C° 0 mm 2 m/S 755 mmHg 82%
04:00 +10°C° 0 mm 3 m/S 755 mmHg 81%
05:00 +10°C° 0 mm 3 m/S 755 mmHg 82%
06:00 +10°C° 0 mm 3 m/S 755 mmHg 82%
07:00 +10°C° 0 mm 3 m/S 755 mmHg 82%
08:00 +11°C° 0 mm 3 m/S 755 mmHg 79%
09:00 +13°C° 0 mm 3 m/S 755 mmHg 76%
10:00 +14°C° 0 mm 3 m/S 755 mmHg 72%
11:00 +16°C° 0 mm 3 m/S 754 mmHg 69%
12:00 +17°C° 0 mm 3 m/S 754 mmHg 66%
13:00 +18°C° 0 mm 3 m/S 754 mmHg 63%
14:00 +17°C° 0 mm 2 m/S 753 mmHg 66%
15:00 +17°C° 0 mm 2 m/S 753 mmHg 68%
16:00 +16°C° 0 mm 1 m/S 753 mmHg 70%
17:00 +15°C° 0 mm 1 m/S 753 mmHg 73%
18:00 +15°C° 0 mm 1 m/S 752 mmHg 76%
19:00 +14°C° 0 mm 1 m/S 752 mmHg 79%
20:00 +14°C° 0 mm 1 m/S 752 mmHg 79%
21:00 +14°C° 0 mm 2 m/S 752 mmHg 79%
22:00 +14°C° 0 mm 2 m/S 752 mmHg 79%
23:00 +15°C° 0 mm 2 m/S 752 mmHg 78%

24 Oktober, Samstag

Zeit Temperatur Niederschläge Wind Luftdruck Luftfeuchtigkeit
00:00 +15°C° 0 mm 2 m/S 752 mmHg 77%
01:00 +15°C° 0 mm 2 m/S 752 mmHg 76%
02:00 +13°C° 0 mm 3 m/S 752 mmHg 79%
03:00 +13°C° 0 mm 3 m/S 752 mmHg 81%
04:00 +13°C° 0 mm 3 m/S 752 mmHg 84%
05:00 +12°C° 0 mm 3 m/S 752 mmHg 86%
06:00 +12°C° 0 mm 3 m/S 752 mmHg 88%
07:00 +12°C° 0 mm 3 m/S 752 mmHg 91%
08:00 +13°C° 0 mm 3 m/S 753 mmHg 85%
09:00 +14°C° 0 mm 3 m/S 753 mmHg 80%
10:00 +16°C° 0 mm 3 m/S 753 mmHg 74%
11:00 +16°C° 0 mm 3 m/S 753 mmHg 73%
12:00 +15°C° 0 mm 4 m/S 753 mmHg 73%
13:00 +17°C° 0 mm 4 m/S 753 mmHg 72%
14:00 +17°C° 0 mm 3 m/S 753 mmHg 73%
15:00 +17°C° 0 mm 3 m/S 754 mmHg 74%
16:00 +16°C° 0 mm 2 m/S 754 mmHg 75%
17:00 +16°C° 0 mm 2 m/S 754 mmHg 78%
18:00 +15°C° 0 mm 2 m/S 754 mmHg 82%
19:00 +14°C° 0 mm 2 m/S 755 mmHg 85%
20:00 +13°C° 0 mm 2 m/S 755 mmHg 86%
21:00 +13°C° 0 mm 2 m/S 755 mmHg 87%
22:00 +12°C° 0 mm 2 m/S 755 mmHg 88%
23:00 +12°C° 0 mm 2 m/S 755 mmHg 90%

25 Oktober, Sonntag

Zeit Temperatur Niederschläge Wind Luftdruck Luftfeuchtigkeit
00:00 +12°C° 0 mm 2 m/S 755 mmHg 91%
01:00 +11°C° 0 mm 1 m/S 755 mmHg 93%
02:00 +10°C° 0 mm 2 m/S 755 mmHg 93%
03:00 +10°C° 0 mm 2 m/S 755 mmHg 94%
04:00 +10°C° 0 mm 2 m/S 755 mmHg 95%
05:00 +10°C° 0 mm 2 m/S 755 mmHg 95%
06:00 +9°C° 0 mm 2 m/S 755 mmHg 95%
07:00 +9°C° 0 mm 2 m/S 755 mmHg 95%
08:00 +12°C° 0 mm 2 m/S 755 mmHg 88%
09:00 +12°C° 0 mm 3 m/S 755 mmHg 80%
10:00 +14°C° 0 mm 3 m/S 755 mmHg 72%
11:00 +16°C° 0 mm 3 m/S 754 mmHg 68%
12:00 +17°C° 0 mm 3 m/S 754 mmHg 63%
13:00 +18°C° 0 mm 3 m/S 754 mmHg 58%
14:00 +18°C° 0 mm 2 m/S 753 mmHg 61%
15:00 +17°C° 0 mm 2 m/S 753 mmHg 64%
16:00 +16°C° 0 mm 2 m/S 752 mmHg 66%
17:00 +16°C° 0 mm 2 m/S 753 mmHg 70%
18:00 +15°C° 0 mm 2 m/S 753 mmHg 73%
19:00 +14°C° 0 mm 2 m/S 753 mmHg 76%
20:00 +14°C° 0 mm 2 m/S 752 mmHg 78%
21:00 +14°C° 0 mm 2 m/S 752 mmHg 80%
22:00 +13°C° 0 mm 2 m/S 752 mmHg 82%
23:00 +13°C° 0 mm 2 m/S 752 mmHg 83%

26 Oktober, Montag

Zeit Temperatur Niederschläge Wind Luftdruck Luftfeuchtigkeit
00:00 +13°C° 0 mm 2 m/S 752 mmHg 84%
01:00 +13°C° 0 mm 2 m/S 751 mmHg 85%
02:00 +13°C° 0 mm 2 m/S 751 mmHg 85%
03:00 +13°C° 0 mm 2 m/S 751 mmHg 85%
04:00 +12°C° 0 mm 3 m/S 751 mmHg 85%
05:00 +12°C° 0.1 mm 3 m/S 751 mmHg 85%
06:00 +12°C° 0.1 mm 3 m/S 750 mmHg 86%
07:00 +12°C° 0.1 mm 3 m/S 750 mmHg 86%
08:00 +13°C° 0 mm 3 m/S 750 mmHg 80%
09:00 +14°C° 0 mm 4 m/S 750 mmHg 75%
10:00 +17°C° 0 mm 4 m/S 750 mmHg 69%
11:00 +16°C° 0 mm 5 m/S 749 mmHg 66%
12:00 +17°C° 0 mm 5 m/S 749 mmHg 62%
13:00 +19°C° 0 mm 5 m/S 748 mmHg 58%
14:00 +17°C° 0 mm 5 m/S 748 mmHg 61%
15:00 +18°C° 0 mm 4 m/S 748 mmHg 63%
16:00 +17°C° 0 mm 4 m/S 747 mmHg 66%
17:00 +17°C° 0.1 mm 4 m/S 747 mmHg 69%
18:00 +15°C° 0.1 mm 4 m/S 747 mmHg 72%
19:00 +14°C° 0.1 mm 4 m/S 748 mmHg 75%
20:00 +14°C° 0 mm 4 m/S 748 mmHg 77%
21:00 +13°C° 0 mm 4 m/S 748 mmHg 79%
22:00 +13°C° 0 mm 4 m/S 748 mmHg 81%
23:00 +12°C° 0 mm 4 m/S 748 mmHg 83%

27 Oktober, Dienstag

Zeit Temperatur Niederschläge Wind Luftdruck Luftfeuchtigkeit
00:00 +12°C° 0 mm 3 m/S 748 mmHg 85%
01:00 +11°C° 0 mm 3 m/S 748 mmHg 87%
02:00 +11°C° 0 mm 3 m/S 748 mmHg 88%
03:00 +11°C° 0 mm 3 m/S 748 mmHg 89%
04:00 +10°C° 0 mm 3 m/S 748 mmHg 90%
05:00 +10°C° 0 mm 3 m/S 748 mmHg 90%
06:00 +10°C° 0 mm 3 m/S 748 mmHg 90%
07:00 +10°C° 0 mm 3 m/S 748 mmHg 90%
08:00 +12°C° 0 mm 4 m/S 749 mmHg 84%
09:00 +14°C° 0 mm 4 m/S 749 mmHg 77%
10:00 +16°C° 0 mm 5 m/S 749 mmHg 70%
11:00 +17°C° 0 mm 5 m/S 749 mmHg 65%
12:00 +19°C° 0 mm 5 m/S 749 mmHg 61%
13:00 +20°C° 0 mm 5 m/S 749 mmHg 56%
14:00 +19°C° 0 mm 4 m/S 749 mmHg 58%
15:00 +19°C° 0 mm 4 m/S 749 mmHg 61%
16:00 +18°C° 0 mm 3 m/S 749 mmHg 63%
17:00 +17°C° 0 mm 3 m/S 749 mmHg 66%
18:00 +16°C° 0 mm 3 m/S 749 mmHg 68%
19:00 +14°C° 0 mm 3 m/S 749 mmHg 71%
20:00 +14°C° 0 mm 3 m/S 750 mmHg 73%
21:00 +14°C° 0 mm 3 m/S 750 mmHg 75%
22:00 +13°C° 0 mm 3 m/S 751 mmHg 77%
23:00 +13°C° 0 mm 3 m/S 751 mmHg 80%
Mehr zeigen